{"data":{"norad_id":59127,"intl_designator":"2024-043AF","name":"JACKAL X-1L-001","alt_names":[],"object_type":"PAYLOAD","status":"ACTIVE","operator":null,"country":"US","launch_date":"2024-03-04","launch_site_code":"AFWTR","launch_vehicle":null,"mission":null,"orbit_class":"UNKNOWN","rcs_meters":null,"size_class":null,"mass_kg":null,"dimensions":null,"purposes":[],"wikipedia_slug":null,"has_3d_model":false,"image_url":null,"decayed_at":null,"tle_current":{"epoch":"2026-09-22T16:23:11.131008Z","epoch_age_seconds":69461,"freshness":"FRESH","line1":"1 59127U 24043AF  26265.68276772  .00013706  00000+0  27054-3 0  9990","line2":"2 59127  97.5705  54.8354 0005728 217.6882 142.3967 15.47276747142610","mean_motion":15.47276747,"eccentricity":0.0005728,"inclination_deg":97.5705,"raan_deg":54.8354,"arg_perigee_deg":217.6882,"mean_anomaly_deg":142.3967,"bstar":0.00027054,"rev_number":14261,"period_min":93.066738241365,"perigee_km":420.79984308088,"apogee_km":428.59316914548,"semimajor_km":6802.8335061132,"source":"CELESTRAK","updated_at":"2026-09-23T09:00:19.178855Z"}}}